FW5255 Weather Reports


time (UTC)temp
C
wind
direction
speed
KPH
gust
KPH
rain 1hr
cm
rain 24hr
cm
rain mn
cm
humidity
%
barometer
mb
20260506182906 18 292 0.0 0.0 0.00 0.00 0.00 86 1008.5
20260506182403 18 267 1.6 3.2 0.00 0.00 0.00 87 1008.7
20260506181900 18 283 0.0 0.0 0.00 0.00 0.00 87 1008.5
20260506181358 18 276 0.0 0.0 0.00 0.00 0.00 87 1008.7
20260506180855 18 273 0.0 1.6 0.00 0.00 0.00 83 1008.7
20260506180351 18 263 3.2 4.8 0.00 0.00 0.00 82 1008.5
20260506175848 18 288 0.0 0.0 0.00 0.00 0.00 80 1008.6
20260506175344 18 284 0.0 0.0 0.00 0.00 0.00 82 1008.6
20260506174841 18 251 0.0 0.0 0.00 0.00 0.00 82 1008.4
20260506174339 18 276 0.0 0.0 0.00 0.00 0.00 83 1008.7
20260506173836 18 278 0.0 0.0 0.00 0.00 0.00 82 1008.8
20260506173333 18 115 1.6 1.6 0.00 0.00 0.00 83 1008.7
20260506172830 18 297 0.0 0.0 0.00 0.00 0.00 83 1008.7
20260506172327 19 35 0.0 1.6 0.00 0.00 0.00 83 1008.7
20260506171824 19 274 0.0 0.0 0.00 0.00 0.00 81 1009.0
20260506171321 19 215 0.0 1.6 0.00 0.00 0.00 81 1008.9
20260506170819 19 193 0.0 0.0 0.00 0.00 0.00 82 1009.0
20260506170314 19 263 0.0 0.0 0.00 0.00 0.00 80 1008.9
20260506165814 20 275 0.0 0.0 0.00 0.00 0.00 83 1009.2
20260506165311 20 264 0.0 0.0 0.00 0.00 0.00 83 1009.1
20260506164807 20 283 0.0 0.0 0.00 0.00 0.00 82 1008.8
20260506164304 19 238 0.0 0.0 0.00 0.00 0.00 83 1009.3
20260506163801 19 268 0.0 0.0 0.00 0.00 0.00 84 1009.2
20260506163255 19 234 0.0 0.0 0.00 0.00 0.00 81 1009.6
20260506162752 19 285 0.0 0.0 0.00 0.00 0.00 80 1009.4
20260506162250 20 223 0.0 0.0 0.00 0.00 0.00 78 1009.8
20260506161741 20 196 0.0 0.0 0.00 0.00 0.00 79 1009.8
20260506161239 20 279 0.0 0.0 0.00 0.00 0.00 79 1010.0
20260506160736 20 277 0.0 0.0 0.00 0.00 0.00 78 1010.1
20260506160232 20 267 0.0 0.0 0.00 0.00 0.00 77 1010.4
20260506155731 20 265 0.0 0.0 0.00 0.00 0.00 75 1010.2
20260506155227 20 268 0.0 0.0 0.00 0.00 0.00 77 1010.2
20260506153335 20 230 0.0 0.0 0.00 0.00 0.00 75 1010.1
20260506152832 20 271 0.0 0.0 0.00 0.00 0.00 72 1010.1
20260506152329 20 282 0.0 0.0 0.00 0.00 0.00 72 1010.2
20260506151828 20 274 0.0 0.0 0.00 0.00 0.00 70 1010.3
20260506151324 20 258 0.0 0.0 0.00 0.00 0.00 71 1010.2
20260506150821 20 245 0.0 0.0 0.00 0.00 0.00 69 1010.3
20260506150318 21 262 0.0 0.0 0.00 0.00 0.00 69 1010.3
20260506145814 20 275 0.0 0.0 0.00 0.00 0.00 69 1010.0
20260506145311 20 280 0.0 0.0 0.00 0.00 0.00 69 1010.3
20260506144809 20 258 0.0 0.0 0.00 0.00 0.00 70 1010.2
20260506144305 20 323 0.0 0.0 0.00 0.00 0.00 70 1010.3
20260506143803 20 332 1.6 1.6 0.00 0.00 0.00 70 1010.5
20260506143300 20 237 0.0 0.0 0.00 0.00 0.00 70 1010.4
20260506142758 20 273 0.0 0.0 0.00 0.00 0.00 70 1010.2
20260506142256 20 283 0.0 0.0 0.00 0.00 0.00 69 1010.3
20260506141754 20 302 0.0 0.0 0.00 0.00 0.00 68 1010.2
20260506141252 20 268 0.0 0.0 0.00 0.00 0.00 69 1010.2
20260506140749 20 92 0.0 0.0 0.00 0.00 0.00 69 1010.3
20260506140246 20 271 0.0 0.0 0.00 0.00 0.00 68 1010.3
20260506135743 20 251 0.0 1.6 0.00 0.00 0.00 69 1010.1
20260506135240 20 274 0.0 0.0 0.00 0.00 0.00 70 1010.0
20260506134736 20 247 0.0 0.0 0.00 0.00 0.00 71 1010.2
20260506134233 20 288 0.0 0.0 0.00 0.00 0.00 71 1009.9
20260506133730 20 278 0.0 0.0 0.00 0.00 0.00 71 1010.2
20260506133226 20 270 0.0 0.0 0.00 0.00 0.00 71 1010.0
20260506132724 20 273 0.0 0.0 0.00 0.00 0.00 70 1010.0
20260506132221 20 196 0.0 0.0 0.00 0.00 0.00 71 1010.3
20260506131719 20 288 0.0 0.0 0.00 0.00 0.00 70 1010.1
20260506131214 20 250 0.0 0.0 0.00 0.00 0.00 68 1010.3
20260506130711 20 272 0.0 0.0 0.00 0.00 0.00 69 1010.3
20260506130208 20 273 0.0 0.0 0.00 0.00 0.00 69 1010.4
20260506125707 20 269 0.0 0.0 0.00 0.00 0.00 69 1010.3
20260506125204 20 314 0.0 0.0 0.00 0.00 0.00 70 1010.2
20260506124702 20 92 0.0 0.0 0.00 0.00 0.00 71 1010.3
20260506124200 20 278 0.0 0.0 0.00 0.00 0.00 72 1010.5
20260506123657 20 98 0.0 0.0 0.00 0.00 0.00 73 1010.2
20260506123155 20 163 0.0 1.6 0.00 0.00 0.00 72 1010.2
20260506122652 20 100 0.0 1.6 0.00 0.00 0.00 73 1010.3
20260506122149 19 270 0.0 0.0 0.00 0.00 0.00 75 1010.1
20260506121647 19 148 0.0 0.0 0.00 0.00 0.00 74 1010.3
20260506121143 18 205 0.0 0.0 0.00 0.00 0.00 75 1010.3
20260506120641 18 212 1.6 1.6 0.00 0.00 0.00 77 1010.5
20260506120138 18 259 0.0 0.0 0.00 0.00 0.00 78 1010.5
20260506115637 18 272 0.0 0.0 0.00 0.00 0.00 77 1010.6
20260506115134 18 271 0.0 0.0 0.00 0.00 0.00 78 1010.4
20260506114631 18 256 0.0 0.0 0.00 0.00 0.00 78 1010.3
20260506114129 18 268 0.0 0.0 0.00 0.00 0.00 77 1010.4
20260506113627 18 175 0.0 0.0 0.00 0.00 0.00 79 1010.6
20260506113125 18 271 0.0 0.0 0.00 0.00 0.00 78 1010.4
20260506112621 18 267 0.0 0.0 0.00 0.00 0.00 78 1010.6
20260506112118 18 272 0.0 0.0 0.00 0.00 0.00 78 1010.4
20260506111616 18 265 0.0 0.0 0.00 0.00 0.00 78 1010.3
20260506111113 17 274 0.0 0.0 0.00 0.00 0.00 78 1010.3
20260506110611 17 248 1.6 4.8 0.00 0.00 0.00 79 1010.3
20260506110108 17 170 0.0 0.0 0.00 0.00 0.00 80 1010.5
20260506105604 17 254 0.0 0.0 0.00 0.00 0.00 80 1010.5
20260506105101 17 256 0.0 0.0 0.00 0.00 0.00 80 1010.4
20260506104559 17 274 0.0 0.0 0.00 0.00 0.00 81 1010.5
20260506104056 17 111 0.0 0.0 0.00 0.00 0.00 81 1010.3
20260506103554 17 201 0.0 0.0 0.00 0.00 0.00 82 1010.3
20260506103050 17 171 0.0 0.0 0.00 0.00 0.00 82 1010.4
20260506102549 17 194 0.0 0.0 0.00 0.00 0.00 82 1010.4
20260506102046 17 253 0.0 0.0 0.00 0.00 0.00 82 1010.4
20260506101542 17 162 0.0 0.0 0.00 0.00 0.00 82 1010.5
20260506101040 17 219 0.0 0.0 0.00 0.00 0.00 82 1010.5
20260506100538 17 250 0.0 0.0 0.00 0.00 0.00 82 1010.5
20260506100036 17 229 0.0 0.0 0.00 0.00 0.00 83 1010.6
20260506095534 17 285 0.0 0.0 0.00 0.00 0.00 82 1010.3
20260506095030 17 267 0.0 0.0 0.00 0.00 0.00 82 1010.5
20260506094528 17 173 0.0 0.0 0.00 0.00 0.00 82 1010.2
20260506094026 17 217 0.0 0.0 0.00 0.00 0.00 82 1010.4
20260506093524 17 157 0.0 0.0 0.00 0.00 0.00 82 1010.2
20260506093021 17 258 0.0 0.0 0.00 0.00 0.00 83 1010.2
20260506092519 17 188 0.0 0.0 0.00 0.00 0.00 82 1010.3
20260506092015 17 202 0.0 0.0 0.00 0.00 0.00 82 1010.3
20260506091514 17 206 0.0 0.0 0.00 0.00 0.00 82 1010.4
20260506091011 17 124 0.0 0.0 0.00 0.00 0.00 82 1010.3
20260506090509 17 180 0.0 0.0 0.00 0.00 0.00 82 1010.3
20260506090004 17 148 0.0 1.6 0.00 0.00 0.00 82 1010.4
20260506085501 17 162 0.0 0.0 0.00 0.00 0.00 82 1010.2
20260506084958 17 210 0.0 1.6 0.00 0.00 0.00 81 1010.6
20260506084454 17 275 0.0 0.0 0.00 0.00 0.00 81 1010.6
20260506083951 17 196 0.0 0.0 0.00 0.00 0.00 82 1010.6
20260506083448 17 267 0.0 0.0 0.00 0.00 0.00 82 1010.5
20260506082945 17 268 0.0 0.0 0.00 0.00 0.00 82 1010.7
20260506082442 17 231 0.0 0.0 0.00 0.00 0.00 82 1010.5
20260506081938 17 266 0.0 0.0 0.00 0.00 0.00 82 1010.6
20260506081437 17 270 0.0 0.0 0.00 0.00 0.00 82 1010.7
20260506080933 18 274 0.0 0.0 0.00 0.00 0.00 81 1010.7
20260506080430 18 266 0.0 0.0 0.00 0.00 0.00 81 1010.7
20260506073414 18 242 0.0 0.0 0.00 0.00 0.00 81 1010.5
20260506072912 18 152 0.0 0.0 0.00 0.00 0.00 81 1010.6
20260506072409 18 166 0.0 0.0 0.00 0.00 0.00 80 1010.5
20260506071906 18 172 0.0 0.0 0.00 0.00 0.00 81 1010.7
20260506071405 18 137 0.0 0.0 0.00 0.00 0.00 81 1010.8
20260506070901 18 270 0.0 0.0 0.00 0.00 0.00 80 1010.7
20260506070358 18 227 0.0 0.0 0.00 0.00 0.00 80 1010.6
20260506062335 18 272 0.0 0.0 0.00 0.00 0.00 80 1010.8
20260506061831 18 118 0.0 0.0 0.00 0.00 0.00 80 1010.8
20260506061327 18 218 0.0 0.0 0.00 0.00 0.00 80 1010.8
20260506060826 18 238 0.0 0.0 0.00 0.00 0.00 80 1010.8
20260506060323 18 253 0.0 0.0 0.00 0.00 0.00 80 1010.7
20260506051255 19 290 0.0 0.0 0.00 0.00 0.00 77 1011.0
20260506050753 19 232 0.0 0.0 0.00 0.00 0.00 77 1011.1
20260506050250 19 253 0.0 0.0 0.00 0.00 0.00 77 1011.3
20260506044741 19 118 1.6 1.6 0.00 0.00 0.00 77 1011.1
20260506044238 19 148 0.0 0.0 0.00 0.00 0.00 77 1011.3
20260506043736 19 268 0.0 0.0 0.00 0.00 0.00 77 1011.3
20260506043233 19 179 0.0 0.0 0.00 0.00 0.00 77 1011.1
20260506042731 19 204 0.0 0.0 0.00 0.00 0.00 76 1011.2
20260506042229 19 253 0.0 0.0 0.00 0.00 0.00 76 1011.5
20260506041728 19 271 0.0 0.0 0.00 0.00 0.00 76 1011.2
20260506041224 19 196 0.0 0.0 0.00 0.00 0.00 76 1011.3
20260506040722 19 210 0.0 0.0 0.00 0.00 0.00 75 1011.2
20260506040219 19 255 0.0 0.0 0.00 0.00 0.00 75 1011.0
20260506035715 19 257 0.0 0.0 0.00 0.00 0.00 75 1011.3
20260506035213 19 167 0.0 0.0 0.00 0.00 0.00 74 1011.1
20260506034709 19 239 0.0 0.0 0.00 0.00 0.00 74 1011.2
20260506034207 19 231 0.0 0.0 0.00 0.00 0.00 74 1011.1
20260506033704 19 51 0.0 0.0 0.00 0.00 0.00 74 1011.4
20260506033200 20 135 0.0 1.6 0.00 0.00 0.00 73 1011.3
20260506032657 20 247 0.0 0.0 0.00 0.00 0.00 72 1011.2
20260506032154 20 246 0.0 0.0 0.00 0.00 0.00 72 1011.4
20260506031651 20 205 0.0 0.0 0.00 0.00 0.00 71 1011.2
20260506031148 20 148 0.0 0.0 0.00 0.00 0.00 71 1011.2
20260506030647 20 206 0.0 0.0 0.00 0.00 0.00 71 1011.2
20260506030143 20 264 0.0 0.0 0.00 0.00 0.00 71 1011.4
20260506025640 20 250 0.0 0.0 0.00 0.00 0.00 71 1011.3
20260506025136 20 238 0.0 0.0 0.00 0.00 0.00 70 1011.1
20260506024634 20 259 1.6 3.2 0.00 0.00 0.00 70 1011.4
20260506024130 20 139 0.0 1.6 0.00 0.00 0.00 69 1011.3
20260506023626 20 140 0.0 0.0 0.00 0.00 0.00 68 1011.2
20260506023124 20 160 0.0 0.0 0.00 0.00 0.00 68 1011.3
20260506022621 20 247 0.0 0.0 0.00 0.00 0.00 67 1011.4
20260506022118 20 85 0.0 0.0 0.00 0.00 0.00 67 1011.5
20260506021616 20 85 0.0 0.0 0.00 0.00 0.00 67 1011.3
20260506021113 20 150 0.0 0.0 0.00 0.00 0.00 67 1011.4
20260506020610 20 227 0.0 0.0 0.00 0.00 0.00 65 1011.3
20260506020108 21 130 1.6 3.2 0.00 0.00 0.00 65 1011.2
20260506015605 21 103 0.0 0.0 0.00 0.00 0.00 65 1011.2
20260506015102 21 185 0.0 0.0 0.00 0.00 0.00 64 1011.2
20260506014559 21 160 0.0 0.0 0.00 0.00 0.00 64 1011.2
20260506014055 21 89 0.0 0.0 0.00 0.00 0.00 63 1011.0
20260506013553 21 134 1.6 1.6 0.00 0.00 0.00 63 1011.1
20260506013050 21 266 0.0 0.0 0.00 0.00 0.00 62 1011.1
20260506012546 21 243 0.0 0.0 0.00 0.00 0.00 63 1011.3
20260506012043 21 199 0.0 0.0 0.00 0.00 0.00 63 1010.9
20260506011541 21 149 0.0 0.0 0.00 0.00 0.00 63 1010.7
20260506011036 21 122 0.0 0.0 0.00 0.00 0.00 62 1010.9
20260506010531 21 227 0.0 0.0 0.00 0.00 0.00 62 1011.1
20260506010027 21 277 0.0 0.0 0.00 0.00 0.00 63 1010.9
20260506005524 21 140 0.0 0.0 0.00 0.00 0.00 63 1010.9
20260506005020 21 194 0.0 0.0 0.00 0.00 0.00 63 1010.9
20260506004518 21 73 1.6 1.6 0.00 0.00 0.00 63 1010.9
20260506004014 21 153 0.0 0.0 0.00 0.00 0.00 62 1010.8
20260506003510 21 56 0.0 0.0 0.00 0.00 0.00 62 1010.7
20260506003006 21 250 0.0 0.0 0.00 0.00 0.00 62 1010.5
20260506002502 21 121 0.0 0.0 0.00 0.00 0.00 62 1010.7
20260506001958 22 152 0.0 0.0 0.00 0.00 0.00 62 1010.6
20260506001455 22 154 0.0 1.6 0.00 0.00 0.00 61 1010.4
20260506000952 22 191 0.0 0.0 0.00 0.00 0.00 59 1010.2
20260506000449 22 225 0.0 0.0 0.00 0.00 0.00 57 1010.5
20260505235946 23 33 0.0 0.0 0.00 0.00 0.00 55 1010.5
20260505235445 23 216 0.0 0.0 0.00 0.00 0.00 54 1010.2
20260505234941 23 134 0.0 1.6 0.00 0.00 0.00 53 1010.3
20260505234438 23 247 0.0 0.0 0.00 0.00 0.00 51 1010.2
20260505233935 23 241 0.0 0.0 0.00 0.00 0.00 51 1010.1
20260505233433 23 111 0.0 0.0 0.00 0.00 0.00 50 1010.1
20260505232930 24 278 0.0 0.0 0.00 0.00 0.00 49 1009.8
20260505232428 24 107 0.0 0.0 0.00 0.00 0.00 48 1009.9
20260505231925 25 93 0.0 1.6 0.00 0.00 0.00 46 1009.7
20260505231422 25 268 0.0 0.0 0.00 0.00 0.00 45 1009.8
20260505230920 25 259 0.0 0.0 0.00 0.00 0.00 43 1009.8
20260505230418 25 48 0.0 1.6 0.00 0.00 0.00 43 1009.6
20260505225914 25 265 0.0 0.0 0.00 0.00 0.00 43 1009.6
20260505225411 25 254 0.0 0.0 0.00 0.00 0.00 44 1009.3
20260505224906 25 264 0.0 0.0 0.00 0.00 0.00 44 1009.6
20260505224404 25 277 0.0 0.0 0.00 0.00 0.00 44 1009.8
20260505223901 25 213 0.0 0.0 0.00 0.00 0.00 43 1009.5
20260505223358 26 320 3.2 4.8 0.00 0.00 0.00 44 1009.5
20260505222853 26 263 0.0 0.0 0.00 0.00 0.00 43 1009.7
20260505222350 26 271 0.0 0.0 0.00 0.00 0.00 43 1009.6
20260505221847 26 242 0.0 0.0 0.00 0.00 0.00 43 1009.5
20260505221344 26 158 0.0 0.0 0.00 0.00 0.00 41 1009.5
20260505220841 26 151 0.0 0.0 0.00 0.00 0.00 42 1009.6
20260505220338 26 262 0.0 1.6 0.00 0.00 0.00 42 1009.6
20260505215836 26 265 0.0 0.0 0.00 0.00 0.00 43 1009.3
20260505215333 27 128 0.0 0.0 0.00 0.00 0.00 41 1009.3
20260505214831 27 279 1.6 3.2 0.00 0.00 0.00 41 1009.5
20260505214329 27 286 0.0 0.0 0.00 0.00 0.00 39 1009.2
20260505213825 27 241 0.0 0.0 0.00 0.00 0.00 39 1009.1
20260505213323 27 254 0.0 0.0 0.00 0.00 0.00 39 1009.2
20260505212819 27 305 0.0 0.0 0.00 0.00 0.00 41 1009.2
20260505212317 27 175 0.0 0.0 0.00 0.00 0.00 40 1009.2
20260505211812 27 206 0.0 1.6 0.00 0.00 0.00 38 1009.3
20260505211310 27 235 0.0 0.0 0.00 0.00 0.00 38 1009.1
20260505210806 27 353 0.0 0.0 0.00 0.00 0.00 37 1008.8
20260505210303 27 265 0.0 0.0 0.00 0.00 0.00 38 1009.2
20260505205800 27 274 0.0 0.0 0.00 0.00 0.00 38 1009.0
20260505205259 27 186 0.0 0.0 0.00 0.00 0.00 37 1009.2
20260505204755 27 252 0.0 0.0 0.00 0.00 0.00 39 1008.9
20260505204253 28 106 0.0 0.0 0.00 0.00 0.00 38 1008.9
20260505203750 28 242 0.0 0.0 0.00 0.00 0.00 38 1008.8
20260505203247 28 236 0.0 0.0 0.00 0.00 0.00 38 1009.1
20260505202742 28 196 0.0 0.0 0.00 0.00 0.00 38 1009.0
20260505202239 28 243 0.0 0.0 0.00 0.00 0.00 37 1008.7
20260505201735 28 231 1.6 3.2 0.00 0.00 0.00 38 1008.7
20260505201233 28 274 0.0 0.0 0.00 0.00 0.00 40 1009.0
20260505200731 28 262 0.0 0.0 0.00 0.00 0.00 40 1009.1
20260505200228 28 117 0.0 0.0 0.00 0.00 0.00 40 1009.0
20260505195723 28 254 0.0 0.0 0.00 0.00 0.00 40 1009.0
20260505195221 28 11 0.0 3.2 0.00 0.00 0.00 40 1009.0
20260505194718 28 274 0.0 0.0 0.00 0.00 0.00 42 1009.1
20260505194215 28 71 0.0 0.0 0.00 0.00 0.00 39 1009.3
20260505193710 28 269 0.0 0.0 0.00 0.00 0.00 40 1009.2
20260505193208 28 42 0.0 1.6 0.00 0.00 0.00 39 1009.2
20260505192707 29 172 0.0 0.0 0.00 0.00 0.00 41 1009.3
20260505192203 29 289 0.0 0.0 0.00 0.00 0.00 38 1009.2
20260505191702 29 273 0.0 0.0 0.00 0.00 0.00 38 1009.1
20260505191200 28 287 0.0 0.0 0.00 0.00 0.00 40 1009.2
20260505190656 29 114 0.0 1.6 0.00 0.00 0.00 39 1009.3
20260505190155 29 277 0.0 0.0 0.00 0.00 0.00 41 1009.8
20260505185653 28 273 0.0 0.0 0.00 0.00 0.00 41 1009.6
20260505185149 28 281 0.0 0.0 0.00 0.00 0.00 40 1009.8
20260505184645 29 269 0.0 0.0 0.00 0.00 0.00 40 1010.0
20260505184142 29 316 0.0 0.0 0.00 0.00 0.00 39 1009.8
20260505183639 29 220 0.0 0.0 0.00 0.00 0.00 38 1010.0